Regional Weather Roundup
Issued by NWS

Home | Current Version | Previous Version | Text Only | Print | Product List | Glossary Off
Versions: 1 2 3 4 5 6 7 8 9 10 11 12 13 14 15 16 17 18 19 20 21 22 23 24 25 26 27 28 29 30 31 32 33 34 35 36 37 38 39 40 41 42 43 44 45 46 47 48 49 50

000
ASUS43 KDTX 281701
RWRMI
MICHIGAN HOURLY REGIONAL WEATHER ROUNDUP
NATIONAL WEATHER SERVICE DETROIT/PONTIAC MI
100 PM EDT SAT MAR 28 2015

NOTE: "FAIR" INDICATES FEW OR NO CLOUDS BELOW 12,000 FEET WITH NO
SIGNIFICANT WEATHER AND/OR OBSTRUCTION TO VISIBILITY.

MIZ047>049-052>055-059>063-066>070-074>076-081>083-281800-
SOUTHEAST LOWER MICHIGAN

CITY           SKY/WX    TMP DP  RH WIND       PRES   REMARKS
ADRIAN         SUNNY     29  10  45 N8        30.30R WCI  21
ALMA           SUNNY     29   4  34 W6        30.31F WCI  23
ANN ARBOR      SUNNY     30   7  37 N12       30.29R WCI  20
BAD AXE        SUNNY     26  12  55 N7        30.29S WCI  18
CARO           MOSUNNY   28  13  52 N7        30.30R WCI  21
DETROIT CITY   MOSUNNY   30  10  43 NW12      30.29S WCI  20
DETROIT        MOSUNNY   30   9  41 NW8       30.30S WCI  22
FLINT          SUNNY     32   9  38 N9G20     30.30S WCI  24
GROSSE ILE     MOSUNNY   28   9  43 N6G17     30.28S WCI  22
HILLSDALE      SUNNY     29   6  38 N8        30.27S WCI  21
HOWELL         SUNNY     29   9  43 N9G16     30.28S WCI  20

CITY           SKY/WX    TMP DP  RH WIND       PRES   REMARKS
JACKSON        SUNNY     29   6  38 N7G17     30.29S WCI  22
LAMBERTVILLE   SUNNY     30  10  43 CALM      30.30S
LANSING        SUNNY     30   8  39 MISG      30.31S
LAPEER         PTSUNNY   27  11  52 N8        30.28S WCI  18
MASON          SUNNY     28   7  41 CALM      30.29F
MONROE         MOSUNNY   28  12  50 NE5       30.28S WCI  23
MT. CLEMENS    MOSUNNY   28  11  49 N8        30.26S WCI  20
PONTIAC        PTSUNNY   29   9  43 N9        30.26S WCI  20
PORT HOPE        N/A     28  13  53 N8        30.28F WCI  20
PORT HURON     SUNNY     25  10  54 N7        30.29S WCI  17
TRI CITIES     SUNNY     29   7  39 VRB5      30.31F WCI  24
TROY           MOSUNNY   29  11  46 N5        30.30S WCI  24
SAGINAW HB     SUNNY     30   5  34 N6        30.31S WCI  24
$$
MIZ043>046-050>051-056>058-064>065-071>073-077>080-281800-
SOUTHWEST LOWER MICHIGAN

CITY           SKY/WX    TMP DP  RH WIND       PRES   REMARKS
BATTLE CREEK   SUNNY     30   3  31 NE7       30.31S WCI  23
BENTON HARBOR  SUNNY     25  11  55 VRB6      30.35S WCI  18
BIG RAPIDS     SUNNY     29   5  36 NW3       30.29S
COLDWATER      SUNNY     28   5  37 CALM      30.30S
FREMONT        FAIR      28  -4  25 CALM      30.32F
HOLLAND        SUNNY     29   2  31 CALM      30.34F
GRAND RAPIDS   SUNNY     29   4  34 NW6       30.32F WCI  23
IONIA          FAIR      30   2  30 N6        30.30F WCI  24
KALAMAZOO      SUNNY     29   3  33 VRB3      30.32S
LUDINGTON      SUNNY     31  10  42 NW8       30.34F WCI  23
MARSHALL       SUNNY     29   4  35 N5        30.30S WCI  23
MOUNT PLEASANT SUNNY     29   5  36 N7        30.30S WCI  22
MUSKEGON       SUNNY     30   2  30 MISG      30.34F
SOUTH HAVEN    SUNNY     28   9  44 NW8       30.34S WCI  20
$$
MIZ016>042-281800-
NORTHERN LOWER MICHIGAN

CITY           SKY/WX    TMP DP  RH WIND       PRES   REMARKS
ALPENA         SUNNY     29   7  39 N6        30.28F WCI  23
BEAVER ISLAND  SUNNY     25   8  48 SW6       30.31S WCI  18
BELLAIRE       SUNNY     27   5  39 NW6       30.33S WCI  20
CADILLAC       SUNNY     30   2  30 CALM      30.25S
CHARLEVOIX     SUNNY     25   6  44 W3        30.35F
FRANKFORT      SUNNY     30   7  37 W8        30.33F WCI  23
GAYLORD        SUNNY     24   4  42 CALM      30.25S
GRAYLING       SUNNY     28   2  33 CALM      30.27S
HARBOR SPRINGS FAIR      21   9  59 SW8       30.31F WCI  11
HOUGHTON LAKE  SUNNY     26   6  42 SW9       30.27F WCI  17
MANISTEE       SUNNY     27   7  43 NW7       30.34S WCI  19
OSCODA         SUNNY     29  11  46 E8        30.28F WCI  21
PELLSTON       SUNNY     28   8  43 N8        30.30F WCI  20
ROGERS CITY    SUNNY     26  15  64 N8        30.30S WCI  17
TRAVERSE CITY  SUNNY     25   6  44 NE8       30.31F WCI  16
$$
MIZ007>008-015-281800-
EASTERN UPPER MICHIGAN

CITY           SKY/WX    TMP DP  RH WIND       PRES   REMARKS
KINROSS        SUNNY     30  12  47 NW5       30.26F WCI  25
MACKINAC ISLAN SUNNY     21  12  68 W7        30.29F WCI  13
NEWBERRY       SUNNY     25   3  39 W3        30.27F
S. S. MARIE    SUNNY     25  10  53 VRB6      30.27F WCI  18
$$
MIZ004>006-011>014-085-281800-
CENTRAL UPPER MICHIGAN

CITY           SKY/WX    TMP DP  RH WIND       PRES   REMARKS
MANISTIQUE     SUNNY     24  13  61 S6        30.29F WCI  17
ESCANABA       SUNNY     27  12  54 S8        30.30F WCI  18
MENOMINEE      SUNNY     30  12  47 CALM      30.30F
SAWYER-GWINN   SUNNY     28   3  34 SW3       30.22F
$$
MIZ001>003-009>011-084-281800-
WESTERN UPPER MICHIGAN

CITY           SKY/WX    TMP DP  RH WIND       PRES   REMARKS
IRON MOUNTAIN  SUNNY     30   8  39 S7        30.23F WCI  23
HOUGHTON       SUNNY     29   2  31 S5        30.20F WCI  24
COPPER HARBOR    N/A     27   9  46 N6        30.23F WCI  20
IRONWOOD       SUNNY     34   9  35 CALM      30.18F
$$

ABBREVIATIONS USED IN REMARKS
   TC - TEMPERATURE IN CELSIUS
  WCI - WIND CHILL INDEX
   HX - HEAT INDEX
  VSB - VISIBILITY




USA.gov is the U.S. government's official web portal to all federal, state and local government web resources and services.